• In Hungary
  • List of Countries
  • For 7 days
  • Water Temperature
  • Satellite Maps
  • Weather Map
  • News
  • Weather Widgets
  • user-avatar
    Login

    Hourly Weather Milowka

    Today, 15 October, Monday

    Time Temperature Precipitation Wind Pressure Humidity
    00:00 +12°C° 0 mm 2 mps 727 mmHg 73%
    01:00 +11°C° 0 mm 1 mps 727 mmHg 76%
    02:00 +11°C° 0 mm 1 mps 727 mmHg 74%
    03:00 +10°C° 0 mm 2 mps 727 mmHg 73%
    04:00 +10°C° 0 mm 2 mps 727 mmHg 71%
    05:00 +10°C° 0 mm 2 mps 727 mmHg 70%
    06:00 +10°C° 0 mm 2 mps 727 mmHg 68%
    07:00 +11°C° 0 mm 1 mps 727 mmHg 63%
    08:00 +14°C° 0 mm 1 mps 727 mmHg 55%
    09:00 +16°C° 0 mm 1 mps 727 mmHg 48%
    10:00 +19°C° 0 mm 2 mps 728 mmHg 40%
    11:00 +20°C° 0 mm 2 mps 727 mmHg 38%
    12:00 +21°C° 0 mm 2 mps 727 mmHg 36%
    13:00 +21°C° 0 mm 2 mps 727 mmHg 34%
    14:00 +21°C° 0 mm 1 mps 727 mmHg 39%
    15:00 +20°C° 0 mm 1 mps 727 mmHg 44%
    16:00 +19°C° 0 mm 1 mps 726 mmHg 49%
    17:00 +16°C° 0 mm 1 mps 726 mmHg 52%
    18:00 +15°C° 0 mm 1 mps 726 mmHg 56%
    19:00 +13°C° 0 mm 1 mps 726 mmHg 60%
    20:00 +13°C° 0 mm 1 mps 726 mmHg 60%
    21:00 +12°C° 0 mm 1 mps 726 mmHg 61%
    22:00 +12°C° 0 mm 1 mps 726 mmHg 61%
    23:00 +11°C° 0 mm 1 mps 726 mmHg 60%

    Tomorrow, 16 October, Tuesday

    Time Temperature Precipitation Wind Pressure Humidity
    00:00 +10°C° 0 mm 2 mps 726 mmHg 58%
    01:00 +10°C° 0 mm 2 mps 726 mmHg 56%
    02:00 +10°C° 0 mm 2 mps 726 mmHg 55%
    03:00 +10°C° 0 mm 2 mps 726 mmHg 53%
    04:00 +10°C° 0 mm 2 mps 726 mmHg 51%
    05:00 +10°C° 0 mm 2 mps 726 mmHg 52%
    06:00 +10°C° 0 mm 2 mps 726 mmHg 53%
    07:00 +10°C° 0 mm 2 mps 726 mmHg 54%
    08:00 +13°C° 0 mm 2 mps 726 mmHg 49%
    09:00 +16°C° 0 mm 2 mps 727 mmHg 44%
    10:00 +18°C° 0 mm 2 mps 727 mmHg 39%
    11:00 +19°C° 0 mm 2 mps 727 mmHg 38%
    12:00 +20°C° 0 mm 2 mps 727 mmHg 37%
    13:00 +21°C° 0 mm 2 mps 727 mmHg 36%
    14:00 +20°C° 0 mm 2 mps 727 mmHg 41%
    15:00 +20°C° 0 mm 1 mps 727 mmHg 45%
    16:00 +19°C° 0 mm 1 mps 726 mmHg 50%
    17:00 +16°C° 0 mm 1 mps 726 mmHg 53%
    18:00 +15°C° 0 mm 1 mps 726 mmHg 56%
    19:00 +14°C° 0 mm 1 mps 726 mmHg 58%
    20:00 +14°C° 0 mm 1 mps 726 mmHg 58%
    21:00 +13°C° 0 mm 1 mps 727 mmHg 58%
    22:00 +13°C° 0 mm 1 mps 727 mmHg 58%
    23:00 +13°C° 0 mm 1 mps 727 mmHg 58%

    Day after tomorrow, 17 October, Wednesday

    Time Temperature Precipitation Wind Pressure Humidity
    00:00 +13°C° 0 mm 1 mps 727 mmHg 58%
    01:00 +13°C° 0 mm 1 mps 727 mmHg 58%
    02:00 +13°C° 0.1 mm 1 mps 726 mmHg 59%
    03:00 +13°C° 0.1 mm 1 mps 726 mmHg 60%
    04:00 +12°C° 0.1 mm 1 mps 726 mmHg 62%
    05:00 +12°C° 0.1 mm 1 mps 726 mmHg 63%
    06:00 +12°C° 0.1 mm 1 mps 726 mmHg 64%
    07:00 +12°C° 0.1 mm 1 mps 726 mmHg 65%
    08:00 +15°C° 0 mm 1 mps 726 mmHg 59%
    09:00 +18°C° 0 mm 1 mps 727 mmHg 53%
    10:00 +20°C° 0 mm 1 mps 727 mmHg 47%
    11:00 +20°C° 0 mm 1 mps 727 mmHg 45%
    12:00 +21°C° 0 mm 1 mps 726 mmHg 43%
    13:00 +22°C° 0 mm 1 mps 726 mmHg 41%
    14:00 +21°C° 0 mm 1 mps 726 mmHg 46%
    15:00 +20°C° 0 mm 1 mps 726 mmHg 50%
    16:00 +19°C° 0 mm 1 mps 725 mmHg 54%
    17:00 +18°C° 0 mm 1 mps 725 mmHg 57%
    18:00 +14°C° 0 mm 0 mps 725 mmHg 60%
    19:00 +13°C° 0 mm 0 mps 725 mmHg 62%
    20:00 +13°C° 0 mm 0 mps 725 mmHg 64%
    21:00 +12°C° 0 mm 0 mps 725 mmHg 66%
    22:00 +13°C° 0 mm 1 mps 725 mmHg 68%
    23:00 +11°C° 0 mm 0 mps 725 mmHg 70%

    18 October, Thursday

    Time Temperature Precipitation Wind Pressure Humidity
    00:00 +11°C° 0 mm 0 mps 725 mmHg 71%
    01:00 +11°C° 0 mm 0 mps 725 mmHg 73%
    02:00 +11°C° 0 mm 0 mps 725 mmHg 74%
    03:00 +10°C° 0 mm 0 mps 724 mmHg 75%
    04:00 +10°C° 0 mm 0 mps 724 mmHg 76%
    05:00 +10°C° 0 mm 0 mps 724 mmHg 75%
    06:00 +10°C° 0 mm 0 mps 724 mmHg 75%
    07:00 +11°C° 0 mm 0 mps 725 mmHg 74%
    08:00 +12°C° 0 mm 0 mps 725 mmHg 70%
    09:00 +15°C° 0 mm 1 mps 725 mmHg 65%
    10:00 +16°C° 0 mm 1 mps 725 mmHg 60%
    11:00 +18°C° 0 mm 1 mps 725 mmHg 59%
    12:00 +18°C° 0 mm 1 mps 725 mmHg 57%
    13:00 +19°C° 0 mm 1 mps 725 mmHg 55%
    14:00 +18°C° 0 mm 1 mps 724 mmHg 60%
    15:00 +16°C° 0 mm 1 mps 724 mmHg 64%
    16:00 +16°C° 0 mm 1 mps 724 mmHg 68%
    17:00 +15°C° 0 mm 1 mps 724 mmHg 70%
    18:00 +13°C° 0 mm 0 mps 724 mmHg 72%
    19:00 +13°C° 0 mm 0 mps 724 mmHg 74%
    20:00 +13°C° 0 mm 0 mps 724 mmHg 75%
    21:00 +12°C° 0 mm 0 mps 724 mmHg 75%
    22:00 +12°C° 0 mm 0 mps 725 mmHg 76%
    23:00 +12°C° 0 mm 0 mps 725 mmHg 76%

    19 October, Friday

    Time Temperature Precipitation Wind Pressure Humidity
    00:00 +12°C° 0 mm 0 mps 725 mmHg 77%
    01:00 +12°C° 0 mm 0 mps 725 mmHg 78%
    02:00 +12°C° 0 mm 0 mps 725 mmHg 78%
    03:00 +12°C° 0 mm 0 mps 724 mmHg 79%
    04:00 +11°C° 0 mm 0 mps 724 mmHg 80%
    05:00 +11°C° 0 mm 0 mps 724 mmHg 80%
    06:00 +11°C° 0 mm 0 mps 725 mmHg 80%
    07:00 +11°C° 0 mm 0 mps 725 mmHg 80%
    08:00 +13°C° 0 mm 1 mps 725 mmHg 76%
    09:00 +15°C° 0 mm 1 mps 725 mmHg 71%
    10:00 +16°C° 0 mm 1 mps 725 mmHg 67%
    11:00 +16°C° 0 mm 1 mps 725 mmHg 65%
    12:00 +18°C° 0 mm 1 mps 725 mmHg 62%
    13:00 +18°C° 0 mm 1 mps 725 mmHg 60%
    14:00 +17°C° 0.1 mm 2 mps 725 mmHg 64%
    15:00 +16°C° 0.1 mm 2 mps 725 mmHg 68%
    16:00 +15°C° 0.1 mm 2 mps 725 mmHg 72%
    17:00 +14°C° 0.1 mm 1 mps 725 mmHg 77%
    18:00 +13°C° 0.1 mm 1 mps 725 mmHg 82%
    19:00 +12°C° 0.1 mm 1 mps 725 mmHg 87%
    20:00 +12°C° 0 mm 1 mps 726 mmHg 89%
    21:00 +11°C° 0 mm 1 mps 726 mmHg 91%
    22:00 +11°C° 0 mm 1 mps 726 mmHg 92%
    23:00 +11°C° 0 mm 1 mps 726 mmHg 93%

    20 October, Saturday

    Time Temperature Precipitation Wind Pressure Humidity
    00:00 +11°C° 0 mm 1 mps 726 mmHg 94%
    01:00 +10°C° 0 mm 1 mps 726 mmHg 95%
    02:00 +11°C° 0.1 mm 1 mps 726 mmHg 95%
    03:00 +11°C° 0.1 mm 1 mps 726 mmHg 95%
    04:00 +11°C° 0.1 mm 1 mps 726 mmHg 95%
    05:00 +11°C° 0.1 mm 1 mps 726 mmHg 95%
    06:00 +11°C° 0.1 mm 1 mps 727 mmHg 94%
    07:00 +11°C° 0.1 mm 1 mps 727 mmHg 94%
    08:00 +12°C° 0.1 mm 2 mps 727 mmHg 92%
    09:00 +12°C° 0.1 mm 2 mps 727 mmHg 90%
    10:00 +12°C° 0.1 mm 2 mps 728 mmHg 88%
    11:00 +12°C° 0.2 mm 2 mps 728 mmHg 87%
    12:00 +13°C° 0.2 mm 2 mps 728 mmHg 87%
    13:00 +13°C° 0.2 mm 2 mps 728 mmHg 87%
    14:00 +12°C° 0.3 mm 2 mps 728 mmHg 88%
    15:00 +12°C° 0.3 mm 2 mps 728 mmHg 89%
    16:00 +12°C° 0.3 mm 2 mps 728 mmHg 91%
    17:00 +10°C° 0.2 mm 2 mps 728 mmHg 92%
    18:00 +10°C° 0.2 mm 2 mps 728 mmHg 93%
    19:00 +10°C° 0.2 mm 2 mps 729 mmHg 94%
    20:00 +10°C° 0.2 mm 2 mps 729 mmHg 94%
    21:00 +10°C° 0.2 mm 2 mps 729 mmHg 94%
    22:00 +10°C° 0.2 mm 2 mps 730 mmHg 94%
    23:00 +10°C° 0.1 mm 2 mps 730 mmHg 93%
    Show more